This is the latest recevied weather packets stored in our database for station/object KQ4KX. If no packets are shown the sender has not sent any weather packets the latest 10 day(s).
| Time | Temp. | Humidity | Pressure | Rain* | Wind** | Luminosity | Snow |
|---|---|---|---|---|---|---|---|
| 1778176655 | 32.78° C | 52% | 1015.3 hPa | 0 mm | - | - | - |
| 1778176326 | 32.78° C | 53% | 1015.5 hPa | 0 mm | - | - | - |
| 1778175725 | 32.22° C | 55% | 1015.5 hPa | 0 mm | - | - | - |
| 1778175425 | 32.22° C | 55% | 1015.5 hPa | 0 mm | - | - | - |
| 1778175095 | 32.22° C | 57% | 1015.7 hPa | 0 mm | - | - | - |
| 1778174795 | 32.22° C | 56% | 1015.7 hPa | 0 mm | - | - | - |
| 1778174495 | 32.22° C | 59% | 1015.7 hPa | 0 mm | - | - | - |
| 1778174165 | 32.22° C | 59% | 1015.5 hPa | 0 mm | - | - | - |
| 1778173835 | 32.22° C | 60% | 1015.7 hPa | 0 mm | - | - | - |
| 1778173505 | 31.67° C | 59% | 1015.7 hPa | 0 mm | - | - | - |
| 1778173174 | 32.22° C | 58% | 1015.8 hPa | 0 mm | - | - | - |
| 1778172874 | 32.22° C | 58% | 1015.9 hPa | 0 mm | - | - | - |
| 1778172544 | 31.67° C | 60% | 1015.9 hPa | 0 mm | - | - | - |
| 1778172244 | 31.67° C | 60% | 1015.9 hPa | 0 mm | - | - | - |
| 1778171914 | 31.67° C | 60% | 1016 hPa | 0 mm | - | - | - |
| 1778170984 | 31.11° C | 59% | 1016.1 hPa | 0 mm | - | - | - |
| 1778170055 | 31.11° C | 60% | 1016.3 hPa | 0 mm | - | - | - |
| 1778169726 | 31.11° C | 61% | 1016.5 hPa | 0 mm | - | - | - |
| 1778169424 | 30.56° C | 61% | 1016.4 hPa | 0 mm | - | - | - |
| 1778169095 | 30.56° C | 60% | 1016.5 hPa | 0 mm | - | - | - |
| 1778168764 | 30° C | 61% | 1016.5 hPa | 0 mm | - | - | - |
| 1778168164 | 30° C | 62% | 1016.7 hPa | 0 mm | - | - | - |
| 1778167835 | 30° C | 60% | 1016.7 hPa | 0 mm | - | - | - |
| 1778167175 | 30° C | 60% | 1016.7 hPa | 0 mm | - | - | - |
| 1778166874 | 30° C | 60% | 1016.7 hPa | 0 mm | - | - | - |
* Rain latest hour (hover to see other rain measurements)
** Current wind speed in m/s (hover to see current wind gust speed)